Location: Beuerbach
(48.1459°N, 10.9174°E)
Time: 21:20:38
(UTC+00:00)

SL-16 R/B - Pass Details

Date: 16 August 2024
Orbit: 842 x 845 km, 71.0° (Epoch: 07 September)

Event Time Altitude Azimuth Distance (km) Brightness Sun altitude
Exits shadow 23:15:58 32° 271° (W) 1,403 3.3 -28.5°
Maximum altitude 23:17:35 39° 308° (NW) 1,240 3.3 -28.5°
Drops below altitude 10° 23:22:55 10° 17° (NNE) 2,476 5.5 -28.5°
Sets 23:25:32 0° 25° (NNE) 3,415 6.4 -28.5°
